Pagina principale
METAR-TAF:

METAR-TAF

Aeroporti :

Passo Rolle, Italia

latitudine: 46-18N, longitudine: 011-47E, altezza: 2004 m

Osservazione

Il bollettino è stato emesso 1 ora e 10 minuti fa, alle 09:55 UTC
Vento 4 kt da ovest/nord-ovest
Temperature 12°C
Umidità 82%
Pressione 1031 hPa
Visibilità 10 km o più
Nubi sparse ad un'altezza di 2000 ft

METAR: LIVR 190955Z 29004KT 9999 SCT020 12/09 Q1031

Ora: 13:05 (11:05 UTC)


TAF: mancante

Osservazioni e previsioni meteorologiche di più di 4000 aeroporti (messaggi METAR e TAF).

Le stazioni disponibili sono rappresentate dai dischi gialli e rossi sulla carta.

Puntare il mouse per vedere il nome della stazione.

Clicca sopra per visualizzare le osservazioni e previsioni meteorologiche.

Per cambiare la mappa : fare clic sui pulsanti verdi con una croce nera per ingrandire, il pulsante verde con un trattino per diminuire, o sulla freccia verde per le mappe adiacenti.


METAR-TAF: